Tracking 28790 objects as of 19-Apr-2024
HD Live streaming from Space Station
objects crossing your sky now

BEIDOU 3 IGSO-1

Track BEIDOU 3 IGSO-1 now!


NORAD ID: 44204
Int'l Code: 2019-023A
Perigee: 35,713.2 km
Apogee: 35,876.6 km
Inclination: 57.6 °
Period: 1,436.2 minutes
Semi major axis: 42165 km
RCS: Unknown
Launch date: April 20, 2019
Source: People's Republic of China (PRC)
Launch site: Xichang Space Center, China (XSC)
Your satellite tracking list
Your tracking list is empty




NASA's NSSDC Master Catalog

Two Line Element Set (TLE):
1 44204U 19023A   24109.78823465 -.00000221  00000-0  00000-0 0  9994
2 44204  57.5600  45.8447 0019378 215.3159 349.1113  1.00267531 18427
Source of the keplerian elements: AFSPC